Regional Weather Roundup
Issued by NWS

Home | Current Version | Previous Version | Text Only | Print | Product List | Glossary Off
Versions: 1 2 3 4 5 6 7 8 9 10 11 12 13 14 15 16 17 18 19 20 21 22 23 24 25 26 27 28 29 30 31 32 33 34 35 36 37 38 39 40 41 42 43 44 45 46 47 48 49 50

000
ASUS43 KIND 272209
RWRIN

WEATHER ROUNDUP FOR INDIANA
NATIONAL WEATHER SERVICE INDIANAPOLIS IN
500 PM EST TUE JAN 27 2015

NOTE: "FAIR" INDICATES FEW OR NO CLOUDS BELOW 12,000 FEET WITH NO
SIGNIFICANT WEATHER AND/OR OBSTRUCTIONS TO VISIBILITY.

* - STATION DOES NOT REPORT WEATHER SUCH AS PRECIPITATION OR FOG.

+ - STATION NOT QUALITY CONTROLLED BY THE NATIONAL WEATHER SERVICE.
    USE DATA WITH CAUTION...ESPECIALLY DEWPOINT AND RELATIVE
    HUMIDITY OBSERVATIONS.

INZ001>003-010>013-019-020-272300-
NORTHWEST INDIANA

CITY           SKY/WX    TMP DP  RH WIND       PRES   REMARKS
GARY /AIRPORT/ PTCLDY    30  14  51 N7        30.21R WCI  23
KNOX *+        CLEAR     30  -4  22 NW10      30.18R WCI  21
LA PORTE +     CLEAR     29  16  57 N8        30.19S WCI  21
MICHIGAN CITY+ CLEAR     28  10  47 N9        30.21R WCI  20
MONTICELLO +   CLEAR     29  16  59 NW8       30.18R WCI  21
RENSSELAER +   CLEAR     32  14  47 CALM      30.19S
VALPARAISO     CLEAR     28  15  58 N8        30.19R WCI  20

$$

LMZ046-743>745-272300-
SOUTHERN LAKE MICHIGAN

STATION/POSITION TIME  TEMP WIND        PRES
                       AIR  DIR/SP/G
                 (UTC) (F)  (DEG/KT/KT) (MB)
MICHIGAN CITY    2200   27  350/ 11/ 13   N/A

$$

INZ004-005-014>016-021>024-272300-
NORTH CENTRAL INDIANA

CITY           SKY/WX    TMP DP  RH WIND       PRES   REMARKS
ELKHART        CLEAR     27   7  43 N6        30.19R WCI  20
GOSHEN         CLEAR     27  12  53 N7        30.17R WCI  19
LOGANSPORT +   CLEAR     28  12  50 CALM      30.19R
PERU/GRISSOM   CLEAR     25  15  65 W7        30.16R WCI  17
ROCHESTER +    CLEAR     32  14  47 N5        30.17S WCI  27
SOUTH BEND     CLEAR     29  11  47 N7        30.19R WCI  22
WARSAW +         N/A    N/A N/A N/A MISG        N/A

$$

INZ006>009-017-018-025>027-272300-
NORTHEAST INDIANA

CITY           SKY/WX    TMP DP  RH WIND       PRES   REMARKS
ANGOLA *+      CLEAR     25  10  54 N7        30.15R WCI  17
AUBURN +       CLEAR     27  10  50 NW7       30.17R WCI  19
FORT WAYNE     PTCLDY    26  12  55 N8        30.17R WCI  18
HUNTINGTON +   CLEAR     25   8  48 N5        30.16S WCI  19

$$

INZ028-029-035-036-043>045-051>053-272300-
WEST CENTRAL INDIANA

CITY           SKY/WX    TMP DP  RH WIND       PRES   REMARKS
CRAWFORDSVL +  PTCLDY    28   9  43 N6        30.18R WCI  22
GREENCASTLE +  MOCLDY    30  18  59 N6        30.17R WCI  24
LAFAYETTE      CLEAR     28  11  48 N7        30.20R WCI  21
TERRE HAUTE    CLOUDY    31  26  82 N6        30.18R WCI  25

$$

INZ030>032-037>040-046>048-054>057-064-065-272300-
CENTRAL INDIANA

CITY           SKY/WX    TMP DP  RH WIND       PRES   REMARKS
CP ATTERBURY + MOCLDY    30  18  59 N5        30.17R WCI  25
COLUMBUS       CLOUDY    28  12  50 N7        30.17R WCI  21
GREENWOOD *+   CLEAR     30   7  37 N6        30.16R WCI  24
INDIANAPOLIS   PTCLDY    29  10  45 NW9       30.16R WCI  20
-EAGLE CREEK   CLEAR     30   8  39 N6        30.16R WCI  24
KOKOMO *+      CLEAR     27  12  54 NW7       30.17R WCI  19
MARION +       CLEAR     26  12  55 N5        30.17R WCI  20
MT COMFORT *+  CLEAR     30   5  34 N9        30.16R WCI  22
SHELBYVILLE    CLEAR     31  13  47 N8        30.15R WCI  23
ZIONSVILLE +   CLEAR     29  12  49 N8        30.17R WCI  21

$$

INZ033-034-041-042-049-050-058-059-272300-
EAST CENTRAL INDIANA

CITY           SKY/WX    TMP DP  RH WIND       PRES   REMARKS
MUNCIE         CLEAR     24  13  62 NE8       30.16R WCI  15

$$

INZ060-061-067>069-081>083-085>088-272300-
SOUTHWEST INDIANA

CITY           SKY/WX    TMP DP  RH WIND       PRES   REMARKS
EVANSVILLE     CLOUDY    35  29  78 N8        30.18R WCI  29
HUNTINGBURG *+ CLOUDY    32  27  80 CALM      30.17S
WASHINGTON +   CLOUDY    32  28  83 N5        30.17S WCI  27

$$

INZ062-063-066-070>080-084-089>092-272300-
SOUTH CENTRAL AND SOUTHEAST INDIANA

CITY           SKY/WX    TMP DP  RH WIND       PRES   REMARKS
BLOOMINGTON    CLOUDY    31  25  78 N6        30.15R WCI  25
NORTH VERNON + CLOUDY    30   9  40 N8        30.15  WCI  23

$$




USA.gov is the U.S. government's official web portal to all federal, state and local government web resources and services.